This demonstration page uses our WeatherBlox Daily Observations layout. Learn more.

36.17497, -115.13722

Hourly Observations for April 21, 2015

Temp ( °F °C ) Dew Point ( °F °C ) Humidity (%) Winds ( mph kmh ) Pressure ( in mb ) Visibility ( mi km ) Precip ( " mm )
12:53 am 00:53 Clear 72 22.2 15 -9.4 11 11 WSW 5 7 29.74 1007 10 16.0934 0 0
1:53 am 01:53 Clear 68 20 16 -8.9 13 13 NNW 3 6 29.74 1007 10 16.0934 0 0
2:53 am 02:53 Clear 66 18.9 18 -7.8 16 16 NNW 3 6 29.75 1007 10 16.0934 0 0
3:53 am 03:53 Clear 62 16.7 22 -5.6 21 21 WNW 3 6 29.76 1008 10 16.0934 0 0
4:53 am 04:53 Clear 61 16.1 22 -5.6 22 22 W 3 6 29.76 1008 10 16.0934 0 0
5:53 am 05:53 Clear 61 16.1 20 -6.7 20 20 N 3 6 29.78 1008 10 16.0934 0 0
6:53 am 06:53 Sunny 62 16.7 21 -6.1 21 21 N 6 9 29.8 1009 10 16.0934 0 0
7:53 am 07:53 Sunny 66 18.9 22 -5.6 19 19 NNW 3 6 29.81 1010 10 16.0934 0 0
8:53 am 08:53 Sunny 72 22.2 19 -7.2 13 13 NE 3 6 29.82 1010 10 16.0934 0 0
9:53 am 09:53 Sunny 75 23.9 18 -7.8 11 11 E 7 11 29.83 1010 10 16.0934 0 0
10:53 am 10:53 Sunny 77 25 18 -7.8 11 11 SSE 8 13 29.83 1010 10 16.0934 0 0
11:53 am 11:53 Sunny 80 26.7 15 -9.4 8 8 SSE 14 22 29.81 1010 10 16.0934 0 0
12:53 pm 12:53 Sunny 81 27.2 14 -10 8 8 VRB 5 7 29.78 1009 10 16.0934 0 0
1:53 pm 13:53 Sunny 82 27.8 17 -8.3 9 9 S 7 11 29.76 1008 10 16.0934 0 0
2:53 pm 14:53 Sunny 82 27.8 12 -11.1 7 7 SSE 12 19 29.74 1007 10 16.0934 0 0
3:53 pm 15:53 Sunny 84 28.9 10 -12.2 6 6 SSE 16 26 29.71 1006 10 16.0934 0 0
4:53 pm 16:53 Sunny 83 28.3 -2 -18.9 3 3 SSW 18 30 29.7 1006 10 16.0934 0 0
5:53 pm 17:53 Sunny 82 27.8 -11 -23.9 2 2 S 17 28 29.69 1006 10 16.0934 0 0
6:53 pm 18:53 Sunny 79 26.1 4 -15.6 5 5 S 18 30 29.69 1005 10 16.0934 0 0
7:53 pm 19:53 Clear 77 25 15 -9.4 9 9 SSW 12 19 29.7 1006 10 16.0934 0 0
8:53 pm 20:53 Clear 75 23.9 22 -5.6 14 14 SW 9 15 29.73 1007 10 16.0934 0 0
9:53 pm 21:53 Clear 74 23.3 22 -5.6 14 14 SW 7 11 29.74 1007 10 16.0934 0 0
10:53 pm 22:53 Clear 72 22.2 22 -5.6 15 15 SW 8 13 29.75 1007 10 16.0934 0 0
11:53 pm 23:53 Clear 70 21.1 23 -5 17 17 SSW 7 11 29.75 1008 10 16.0934 0 0

Powered by AerisWeather